When you browse on this site, cookies collect data to enhance your experience and personalize the content and advertising you see.
Visit our Privacy Policy to learn more. By continuing to use the site, you agree to this use of cookies and data.
  • In Hungary
  • List of Countries
  • For 7 days
  • Water Temperature
  • Weather Map
  • News
  • Weather Widgets
  • user-avatar
    Login

    Hourly Weather Sivky

    Today, 10 December, Tuesday

    Time Temperature Precipitation Wind Pressure Humidity
    00:00 +4°C° 0 mm 2 mps 738 mmHg 87%
    01:00 +3°C° 0 mm 2 mps 739 mmHg 87%
    02:00 +3°C° 0 mm 2 mps 739 mmHg 88%
    03:00 +4°C° 0 mm 2 mps 739 mmHg 87%
    04:00 +4°C° 0 mm 2 mps 739 mmHg 85%
    05:00 +4°C° 0 mm 2 mps 739 mmHg 84%
    06:00 +4°C° 0 mm 2 mps 740 mmHg 85%
    07:00 +5°C° 0 mm 1 mps 740 mmHg 86%
    08:00 +4°C° 0 mm 1 mps 740 mmHg 88%
    09:00 +4°C° 0 mm 2 mps 740 mmHg 86%
    10:00 +5°C° 0 mm 2 mps 740 mmHg 85%
    11:00 +5°C° 0 mm 2 mps 741 mmHg 83%
    12:00 +6°C° 0 mm 2 mps 741 mmHg 81%
    13:00 +6°C° 0 mm 2 mps 741 mmHg 80%
    14:00 +6°C° 0 mm 2 mps 742 mmHg 78%
    15:00 +6°C° 0 mm 2 mps 742 mmHg 82%
    16:00 +5°C° 0 mm 2 mps 742 mmHg 85%
    17:00 +4°C° 0 mm 2 mps 742 mmHg 89%
    18:00 +4°C° 0 mm 2 mps 743 mmHg 88%
    19:00 +4°C° 0 mm 2 mps 744 mmHg 88%
    20:00 +4°C° 0 mm 2 mps 745 mmHg 88%
    21:00 +3°C° 0 mm 3 mps 745 mmHg 86%
    22:00 +2°C° 0 mm 3 mps 745 mmHg 84%
    23:00 +2°C° 0 mm 3 mps 745 mmHg 82%

    Tomorrow, 11 December, Wednesday

    Time Temperature Precipitation Wind Pressure Humidity
    00:00 +1°C° 0 mm 3 mps 746 mmHg 85%
    01:00 +1°C° 0 mm 2 mps 746 mmHg 88%
    02:00 -1°C° 0 mm 2 mps 746 mmHg 91%
    03:00 -1°C° 0 mm 2 mps 746 mmHg 91%
    04:00 -1°C° 0 mm 2 mps 746 mmHg 92%
    05:00 0°C° 0 mm 1 mps 746 mmHg 92%
    06:00 +1°C° 0 mm 1 mps 746 mmHg 91%
    07:00 +1°C° 0 mm 1 mps 747 mmHg 90%
    08:00 -1°C° 0 mm 2 mps 747 mmHg 88%
    09:00 +2°C° 0 mm 1 mps 747 mmHg 85%
    10:00 +2°C° 0 mm 1 mps 747 mmHg 81%
    11:00 +3°C° 0 mm 1 mps 747 mmHg 78%
    12:00 +3°C° 0 mm 1 mps 747 mmHg 75%
    13:00 +3°C° 0 mm 1 mps 746 mmHg 72%
    14:00 +3°C° 0 mm 1 mps 746 mmHg 70%
    15:00 +2°C° 0 mm 1 mps 746 mmHg 74%
    16:00 +2°C° 0 mm 1 mps 746 mmHg 78%
    17:00 +1°C° 0 mm 1 mps 745 mmHg 82%
    18:00 +1°C° 0.1 mm 1 mps 745 mmHg 86%
    19:00 -1°C° 0.1 mm 2 mps 745 mmHg 90%
    20:00 -1°C° 0.1 mm 2 mps 745 mmHg 94%
    21:00 -1°C° 0.4 mm 2 mps 745 mmHg 95%
    22:00 +1°C° 0.4 mm 2 mps 744 mmHg 96%
    23:00 0°C° 0.4 mm 3 mps 744 mmHg 97%

    Day after tomorrow, 12 December, Thursday

    Time Temperature Precipitation Wind Pressure Humidity
    00:00 +1°C° 0.6 mm 3 mps 743 mmHg 97%
    01:00 +1°C° 0.6 mm 3 mps 743 mmHg 97%
    02:00 +2°C° 0.6 mm 3 mps 743 mmHg 97%
    03:00 +2°C° 0.2 mm 3 mps 742 mmHg 97%
    04:00 +2°C° 0.2 mm 3 mps 742 mmHg 97%
    05:00 +2°C° 0.2 mm 3 mps 741 mmHg 96%
    06:00 +2°C° 0.1 mm 3 mps 741 mmHg 94%
    07:00 +1°C° 0.1 mm 4 mps 741 mmHg 92%
    08:00 +3°C° 0.1 mm 4 mps 742 mmHg 89%
    09:00 +2°C° 0 mm 5 mps 742 mmHg 87%
    10:00 +2°C° 0 mm 5 mps 741 mmHg 84%
    11:00 +2°C° 0 mm 5 mps 741 mmHg 82%
    12:00 +3°C° 0 mm 5 mps 741 mmHg 80%
    13:00 +4°C° 0 mm 4 mps 741 mmHg 78%
    14:00 +4°C° 0 mm 4 mps 741 mmHg 76%
    15:00 +3°C° 0 mm 4 mps 741 mmHg 80%
    16:00 +3°C° 0 mm 3 mps 740 mmHg 84%
    17:00 +2°C° 0 mm 3 mps 740 mmHg 87%
    18:00 +1°C° 0 mm 4 mps 740 mmHg 87%
    19:00 +1°C° 0 mm 4 mps 740 mmHg 86%
    20:00 +1°C° 0 mm 4 mps 740 mmHg 86%
    21:00 +1°C° 0 mm 4 mps 739 mmHg 85%
    22:00 +1°C° 0 mm 5 mps 739 mmHg 85%
    23:00 +1°C° 0 mm 5 mps 739 mmHg 85%

    13 December, Friday

    Time Temperature Precipitation Wind Pressure Humidity
    00:00 +1°C° 0 mm 5 mps 738 mmHg 85%
    01:00 +2°C° 0 mm 5 mps 738 mmHg 84%
    02:00 +2°C° 0 mm 5 mps 738 mmHg 84%
    03:00 +2°C° 0 mm 5 mps 737 mmHg 84%
    04:00 +2°C° 0 mm 5 mps 737 mmHg 83%
    05:00 +1°C° 0 mm 6 mps 736 mmHg 83%
    06:00 +1°C° 0 mm 5 mps 736 mmHg 83%
    07:00 +1°C° 0 mm 5 mps 736 mmHg 84%
    08:00 +1°C° 0 mm 5 mps 736 mmHg 85%
    09:00 +1°C° 0 mm 6 mps 736 mmHg 85%
    10:00 +1°C° 0 mm 6 mps 736 mmHg 84%
    11:00 +1°C° 0 mm 6 mps 736 mmHg 84%
    12:00 +1°C° 0 mm 6 mps 735 mmHg 83%
    13:00 +1°C° 0 mm 6 mps 735 mmHg 83%
    14:00 +2°C° 0 mm 5 mps 735 mmHg 82%
    15:00 +1°C° 0 mm 6 mps 735 mmHg 82%
    16:00 +1°C° 0 mm 6 mps 735 mmHg 82%
    17:00 +1°C° 0 mm 6 mps 734 mmHg 82%
    18:00 +1°C° 0 mm 6 mps 734 mmHg 82%
    19:00 +1°C° 0 mm 6 mps 735 mmHg 82%
    20:00 +1°C° 0 mm 6 mps 735 mmHg 82%
    21:00 +1°C° 0 mm 6 mps 735 mmHg 82%
    22:00 +1°C° 0 mm 5 mps 735 mmHg 82%
    23:00 +2°C° 0 mm 5 mps 735 mmHg 82%

    14 December, Saturday

    Time Temperature Precipitation Wind Pressure Humidity
    00:00 +1°C° 0 mm 6 mps 735 mmHg 82%
    01:00 +1°C° 0 mm 6 mps 735 mmHg 83%
    02:00 +1°C° 0 mm 6 mps 735 mmHg 83%
    03:00 +1°C° 0 mm 6 mps 735 mmHg 83%
    04:00 +1°C° 0 mm 6 mps 735 mmHg 83%
    05:00 +1°C° 0 mm 5 mps 734 mmHg 83%
    06:00 +1°C° 0 mm 5 mps 735 mmHg 84%
    07:00 +1°C° 0 mm 5 mps 735 mmHg 84%
    08:00 +2°C° 0 mm 5 mps 735 mmHg 85%
    09:00 +2°C° 0 mm 5 mps 735 mmHg 85%
    10:00 +2°C° 0 mm 5 mps 735 mmHg 85%
    11:00 +2°C° 0 mm 6 mps 736 mmHg 85%
    12:00 +2°C° 0 mm 5 mps 735 mmHg 84%
    13:00 +2°C° 0 mm 5 mps 735 mmHg 84%
    14:00 +3°C° 0 mm 5 mps 734 mmHg 83%
    15:00 +3°C° 0 mm 5 mps 735 mmHg 84%
    16:00 +3°C° 0 mm 5 mps 735 mmHg 85%
    17:00 +5°C° 0 mm 5 mps 735 mmHg 86%
    18:00 +5°C° 0 mm 5 mps 735 mmHg 86%
    19:00 +5°C° 0 mm 5 mps 734 mmHg 87%
    20:00 +6°C° 0 mm 5 mps 734 mmHg 87%
    21:00 +6°C° 0.1 mm 5 mps 734 mmHg 87%
    22:00 +6°C° 0.1 mm 5 mps 735 mmHg 88%
    23:00 +6°C° 0.1 mm 4 mps 735 mmHg 88%

    15 December, Sunday

    Time Temperature Precipitation Wind Pressure Humidity
    00:00 +6°C° 0 mm 4 mps 735 mmHg 87%
    01:00 +5°C° 0 mm 4 mps 735 mmHg 86%
    02:00 +5°C° 0 mm 4 mps 735 mmHg 85%
    03:00 +4°C° 0 mm 4 mps 736 mmHg 84%
    04:00 +4°C° 0 mm 4 mps 736 mmHg 82%
    05:00 +4°C° 0 mm 4 mps 736 mmHg 81%
    06:00 +4°C° 0 mm 4 mps 736 mmHg 79%
    07:00 +3°C° 0 mm 4 mps 737 mmHg 77%
    08:00 +3°C° 0 mm 4 mps 737 mmHg 76%
    09:00 +3°C° 0 mm 5 mps 738 mmHg 74%
    10:00 +5°C° 0 mm 5 mps 738 mmHg 73%
    11:00 +5°C° 0 mm 5 mps 739 mmHg 71%
    12:00 +5°C° 0 mm 5 mps 739 mmHg 70%
    13:00 +6°C° 0 mm 5 mps 739 mmHg 68%
    14:00 +6°C° 0 mm 4 mps 740 mmHg 67%
    15:00 +5°C° 0 mm 4 mps 740 mmHg 70%
    16:00 +5°C° 0 mm 3 mps 741 mmHg 72%
    17:00 +4°C° 0 mm 3 mps 741 mmHg 75%
    18:00 +4°C° 0 mm 3 mps 741 mmHg 75%
    19:00 +4°C° 0 mm 3 mps 741 mmHg 76%
    20:00 +4°C° 0 mm 3 mps 741 mmHg 76%
    21:00 +5°C° 0 mm 4 mps 741 mmHg 74%
    22:00 +5°C° 0 mm 4 mps 741 mmHg 71%
    23:00 +6°C° 0 mm 5 mps 740 mmHg 68%
    Show more